Weather History for KDFW - October, 2011

Change the Weather History Date:

Monday, October 17, 2011

  Actual Average Record
Temperature  
Mean Temperature 75 °F 67 °F  
Max Temperature 88 °F 78 °F 95 °F (1972)
Min Temperature 62 °F 57 °F 41 °F (1976)
Degree Days  
Heating Degree Days 0 2  
Month to date heating degree days 0 21  
Since 1 July heating degree days 0 27  
Cooling Degree Days 10 4  
Month to date cooling degree days 134 101  
Year to date cooling degree days 3559 2678  
Growing Degree Days 25 (Base 50)    
Moisture  
Dew Point 59 °F    
Average Humidity 59    
Maximum Humidity 78    
Minimum Humidity 40    
Precipitation  
Precipitation 0.31 in 0.16 in 1.79 in (1915)
Month to date precipitation 2.64 2.10  
Year to date precipitation 20.19 28.76  
Snow  
Snow 0.00 in 0.00 in 0.00 in ()
Month to date snowfall 0.0 0.0  
Since 1 July snowfall 0.0 0.0  
Since 1 September snowfall 0.0 0.0  
Snow Depth 0.00 in    
Sea Level Pressure  
Sea Level Pressure 29.76 in    
Wind  
Wind Speed 14 mph (SSW)    
Max Wind Speed 36 mph    
Max Gust Speed 43 mph    
Visibility 9 miles    
Events Rain , Thunderstorm    
T = Trace of Precipitation, MM = Missing Value Source: NWS Daily Summary

Daily Weather History Graph

Daily Weather History Graph

Search for Another Location

Airport or City:

Trip Planner

Search our weather history database for the weather conditions in past years. The results will help you decide how hot, cold, wet, or windy it might be!

Date:

Astronomy

Oct. 17, 2011 Rise Set
Actual Time 7:33 AM CDT 6:52 PM CDT
Civil Twilight 7:08 AM CDT 7:17 PM CDT
Nautical Twilight 6:39 AM CDT 7:46 PM CDT
Astronomical Twilight 6:11 AM CDT 8:15 PM CDT
Moon 10:47 PM CDT (10/17) 12:27 PM CDT (10/17)
Length of Visible Light 12h 09m
Length of Day
11h 19m
Waning Gibbous, 74% of the Moon is Illuminated
Oct 17
Waning Gibbous
Oct 19
Last Quarter
Oct 26
New
Nov 2
First Quarter
Nov 10
Full

Hourly Weather History & Observations

Time (CDT) Temp. Heat Index Dew Point Humidity Pressure Visibility Wind Dir Wind Speed Gust Speed Precip Events Conditions
12:53 AM 66.9 °F - 52.0 °F 59% 29.90 in 10.0 mi South 9.2 mph - N/A   Clear
1:53 AM 66.9 °F - 53.1 °F 61% 29.90 in 10.0 mi South 8.1 mph - N/A   Clear
2:53 AM 66.2 °F - 53.6 °F 64% 29.91 in 10.0 mi South 9.2 mph - N/A   Clear
3:53 AM 66.9 °F - 54.0 °F 63% 29.86 in 10.0 mi South 12.7 mph - N/A   Clear
4:53 AM 66.9 °F - 54.0 °F 63% 29.84 in 10.0 mi South 10.4 mph - N/A   Clear
5:53 AM 66.0 °F - 54.0 °F 65% 29.86 in 10.0 mi South 10.4 mph - N/A   Clear
6:53 AM 64.0 °F - 54.0 °F 70% 29.87 in 10.0 mi South 5.8 mph - N/A   Clear
7:53 AM 63.0 °F - 55.0 °F 75% 29.87 in 10.0 mi South 3.5 mph - N/A   Clear
8:53 AM 68.0 °F - 59.0 °F 73% 29.86 in 10.0 mi South 8.1 mph - N/A   Clear
9:53 AM 75.0 °F - 61.0 °F 62% 29.85 in 10.0 mi SSW 15.0 mph - N/A   Clear
10:53 AM 79.0 °F - 62.1 °F 56% 29.82 in 10.0 mi South 17.3 mph - N/A   Clear
11:53 AM 82.0 °F 83.0 °F 62.1 °F 51% 29.80 in 10.0 mi South 16.1 mph - N/A   Clear
12:53 PM 84.0 °F 84.5 °F 62.1 °F 47% 29.76 in 10.0 mi South 19.6 mph 25.3 mph N/A   Clear
1:53 PM 86.0 °F 86.3 °F 62.1 °F 44% 29.72 in 10.0 mi South 18.4 mph - N/A   Clear
2:53 PM 87.1 °F 87.5 °F 62.1 °F 43% 29.67 in 10.0 mi South 18.4 mph 27.6 mph N/A   Partly Cloudy
3:53 PM 87.1 °F 87.0 °F 61.0 °F 41% 29.65 in 10.0 mi South 19.6 mph 29.9 mph N/A   Clear
4:53 PM 88.0 °F 87.9 °F 61.0 °F 40% 29.62 in 10.0 mi South 19.6 mph 27.6 mph N/A   Clear
5:53 PM 86.0 °F 85.4 °F 59.0 °F 40% 29.61 in 10.0 mi South 17.3 mph 25.3 mph N/A   Partly Cloudy
6:53 PM 84.0 °F 83.5 °F 57.9 °F 41% 29.62 in 10.0 mi South 12.7 mph - N/A   Partly Cloudy
7:53 PM 82.0 °F 81.7 °F 57.0 °F 42% 29.60 in 10.0 mi SSE 11.5 mph - N/A   Scattered Clouds
8:49 PM 80.6 °F 80.8 °F 57.2 °F 45% 29.62 in 10.0 mi SSE 10.4 mph 18.4 mph N/A Thunderstorm Thunderstorm
8:53 PM 81.0 °F 81.1 °F 57.9 °F 45% 29.60 in 10.0 mi SSE 9.2 mph 18.4 mph N/A Thunderstorm Thunderstorm
9:15 PM 75.2 °F - 62.6 °F 65% 29.68 in 5.0 mi NNW 29.9 mph 40.3 mph 0.00 in Rain , Thunderstorm Thunderstorms and Rain
9:27 PM 69.8 °F - 66.2 °F 88% 29.72 in 2.0 mi NNW 21.9 mph 42.6 mph N/A Rain , Thunderstorm Heavy Thunderstorms and Rain
9:36 PM 69.8 °F - 66.2 °F 88% 29.73 in 6.0 mi NW 11.5 mph 19.6 mph 0.18 in Rain , Thunderstorm Light Thunderstorms and Rain
9:53 PM 70.0 °F - 66.9 °F 90% 29.71 in 10.0 mi NNW 10.4 mph - 0.18 in Rain , Thunderstorm Light Thunderstorms and Rain
10:15 PM 69.8 °F - 64.4 °F 83% 29.75 in 10.0 mi NW 18.4 mph 24.2 mph 0.00 in   Mostly Cloudy
10:48 PM 66.2 °F - 59.0 °F 78% 29.77 in 10.0 mi North 17.3 mph 23.0 mph 0.00 in Thunderstorm Thunderstorm
10:53 PM 66.0 °F - 59.0 °F 78% 29.78 in 10.0 mi NNW 19.6 mph 25.3 mph 0.00 in Thunderstorm Thunderstorm
11:07 PM 62.6 °F - 57.2 °F 82% 29.76 in 2.5 mi North 21.9 mph 31.1 mph 0.04 in Rain , Thunderstorm Heavy Thunderstorms and Rain
11:11 PM 62.6 °F - 57.2 °F 82% 29.78 in 4.0 mi North 11.5 mph 31.1 mph 0.11 in Thunderstorm Overcast
11:53 PM 64.0 °F - 57.0 °F 78% 29.75 in 10.0 mi North 10.4 mph 20.7 mph 0.13 in Thunderstorm Thunderstorm